(431159) = 2006 RR8

Discovered at Anderson Mesa on 2006-08-27 by LONEOS.

Orbit

Orbit type: Main Belt

Note: WebGL enabled browser required.

epoch2023-09-13.0
epoch JD2460200.5
perihelion date2023-05-13.29572
perihelion JD2460077.79572
argument of perihelion (°)346.77405
ascending node (°)343.00734
inclination (°)9.80283
eccentricity0.1641189
perihelion distance (AU)1.8766192
Tisserand w.r.t. Jupiter3.6
ΔV w.r.t. Earth (km/sec)9.0
semimajor axis (AU)2.2450790
mean anomaly (°)35.95143
mean daily motion (°/day)0.29299240
aphelion distance (AU)2.614
period (years)3.36
P-vector [x]0.86508766
P-vector [y]-0.44334334
P-vector [z]-0.23467002
Q-vector [x]0.49914677
Q-vector [y]0.71440718
Q-vector [z]0.49038239
absolute magnitude17.59
phase slope0.15
uncertainty0
referenceMPEC 2024-A48
observations used276
oppositions10
arc length (days)6338
first opposition used2006
last opposition used2024
residual rms (arc-secs)0.67
perturbers coarse indicatorM-v
perturbers precise indicator003Ek
first observation date used2006-08-27.0
last observation date used2024-01-03.0
computer nameMPCLINUX
Minimum Orbit Intersection Distances (in AU)
for orbit epoch: 2460200.5, reference: E2024-A48
Mercury1.4637
Venus1.14879
Earth0.86694
Mars0.4945
Jupiter2.73216
Saturn6.58439
Uranus15.8429
Neptune27.6966

Observations

281 total observations over interval: 2006 08 27.36995 – 2024 01 03.215889
These data are available for download (format description).

Date (UT) J2000 RA J2000 Dec Magn Location Ref
2006 08 27.36995 23 56 13.29 +00 42 50.3 19.0 R 699 – Lowell Observatory-LONEOS MPS 179483
2006 08 27.38818 23 56 12.36 +00 42 56.5   699 – Lowell Observatory-LONEOS MPS 179483
2006 08 27.40635 23 56 11.40 +00 43 01.0   699 – Lowell Observatory-LONEOS MPS 179483
2006 08 27.42458 23 56 10.39 +00 43 04.1   699 – Lowell Observatory-LONEOS MPS 179483
2006 09 12.37996 23 39 51.55 +01 31 41.9 18.7 V 703 – Catalina Sky Survey MPS 179483
2006 09 12.38737 23 39 51.01 +01 31 42.9 18.9 V 703 – Catalina Sky Survey MPS 179483
2006 09 12.39476 23 39 50.58 +01 31 43.6 19.3 V 703 – Catalina Sky Survey MPS 179483
2006 09 12.40211 23 39 50.07 +01 31 44.1 19.5 V 703 – Catalina Sky Survey MPS 179483
2006 09 14.28897 23 37 40.90 +01 35 34.8 18.6 R 644 – Palomar Mountain/NEAT MPS 179483
2006 09 14.30973 23 37 39.39 +01 35 37.2 18.5 R 644 – Palomar Mountain/NEAT MPS 179483
2006 09 14.33768 23 37 37.37 +01 35 40.5 18.6 R 644 – Palomar Mountain/NEAT MPS 179483
2006 09 16.26286 23 35 24.91 +01 39 15.5 18.6 R 699 – Lowell Observatory-LONEOS MPS 179483
2006 09 16.28113 23 35 23.59 +01 39 17.4   699 – Lowell Observatory-LONEOS MPS 179483
2006 09 16.29939 23 35 22.28 +01 39 18.4   699 – Lowell Observatory-LONEOS MPS 179483
2006 09 16.31764 23 35 20.95 +01 39 21.0   699 – Lowell Observatory-LONEOS MPS 179483
2006 09 18.22998 23 33 09.84 +01 42 35.3 18.8   704 – Lincoln Laboratory ETS, New Mexico MPS 179483
2006 09 18.24148 23 33 09.00 +01 42 36.7 19.3   704 – Lincoln Laboratory ETS, New Mexico MPS 179483
2006 09 18.25300 23 33 08.26 +01 42 38.2 19.4   704 – Lincoln Laboratory ETS, New Mexico MPS 179483
2006 09 18.26448 23 33 07.26 +01 42 39.6 19.4   704 – Lincoln Laboratory ETS, New Mexico MPS 179483
2006 09 18.27597 23 33 06.53 +01 42 39.8 19.3   704 – Lincoln Laboratory ETS, New Mexico MPS 179483
2006 09 19.19781 23 32 03.73 +01 44 07.5 19.1 R 699 – Lowell Observatory-LONEOS MPS 179483
2006 09 19.22112 23 32 02.22 +01 44 10.9 19.2 V 703 – Catalina Sky Survey MPS 179483
2006 09 19.22155 23 32 02.18 +01 44 10.1   699 – Lowell Observatory-LONEOS MPS 179483
2006 09 19.23240 23 32 01.39 +01 44 11.7 19.1 V 703 – Catalina Sky Survey MPS 179483
2006 09 19.24373 23 32 00.56 +01 44 12.0 19.1 V 703 – Catalina Sky Survey MPS 179483
2006 09 19.24531 23 32 00.49 +01 44 12.0   699 – Lowell Observatory-LONEOS MPS 179483
2006 09 19.25502 23 31 59.84 +01 44 13.5 19.3 V 703 – Catalina Sky Survey MPS 179483
2006 09 19.26906 23 31 58.85 +01 44 14.7   699 – Lowell Observatory-LONEOS MPS 179483
2006 09 20.16543 23 30 58.27 +01 45 37.0   691 – Steward Observatory, Kitt Peak-Spacewatch MPS 179483
2006 09 20.18290 23 30 57.06 +01 45 38.6   691 – Steward Observatory, Kitt Peak-Spacewatch MPS 179483
2006 09 20.20031 23 30 55.83 +01 45 40.0   691 – Steward Observatory, Kitt Peak-Spacewatch MPS 179483
2006 09 25.22222 23 25 25.57 +01 52 35.4 19.5   704 – Lincoln Laboratory ETS, New Mexico MPS 181211
2006 09 25.24016 23 25 24.32 +01 52 34.3 19.4 R 699 – Lowell Observatory-LONEOS MPS 181211
2006 09 25.24684 23 25 23.90 +01 52 36.9 20.0   704 – Lincoln Laboratory ETS, New Mexico MPS 181211
2006 09 25.26392 23 25 22.91 +01 52 37.6   699 – Lowell Observatory-LONEOS MPS 181211
2006 09 25.27113 23 25 22.25 +01 52 38.1 19.7   704 – Lincoln Laboratory ETS, New Mexico MPS 181211
2006 09 25.28768 23 25 21.16 +01 52 39.5   699 – Lowell Observatory-LONEOS MPS 181211
2006 09 25.31145 23 25 19.65 +01 52 42.5   699 – Lowell Observatory-LONEOS MPS 181211
2006 10 23.08916 23 07 13.33 +02 36 55.3 20.1 R 644 – Palomar Mountain/NEAT MPS 184114
2006 10 23.10960 23 07 13.09 +02 36 58.3 20.2 R 644 – Palomar Mountain/NEAT MPS 184114
2006 10 23.13005 23 07 12.85 +02 37 01.5 20.0 R 644 – Palomar Mountain/NEAT MPS 184114
2008 02 09.17321 09 42 16.96 +20 13 40.4 20.7 V 691 – Steward Observatory, Kitt Peak-Spacewatch MPS 496965
2008 02 09.19086 09 42 15.66 +20 13 43.0 20.5 V 691 – Steward Observatory, Kitt Peak-Spacewatch MPS 496965
2008 02 09.20850 09 42 14.39 +20 13 45.6 20.5 V 691 – Steward Observatory, Kitt Peak-Spacewatch MPS 496965
2013 11 11.23560 02 59 59.46 +34 31 04.7 20.2 V G96 – Mt. Lemmon Survey MPS 496965
2013 11 11.24237 02 59 58.89 +34 31 03.9 19.9 V G96 – Mt. Lemmon Survey MPS 496965
2013 11 11.25091 02 59 58.21 +34 31 02.0 20.1 V G96 – Mt. Lemmon Survey MPS 496965
2013 11 11.27058 02 59 56.59 +34 30 58.7 19.9 V G96 – Mt. Lemmon Survey MPS 496965
2013 11 28.11166 02 40 25.91 +33 09 55.6 20.1 r I41 – Palomar Mountain--ZTF MPS 496965
2013 11 28.14540 02 40 23.92 +33 09 43.7 20.2 r I41 – Palomar Mountain--ZTF MPS 496965
2013 11 28.19055 02 40 21.30 +33 09 27.2 20.1 r I41 – Palomar Mountain--ZTF MPS 496965
2013 11 28.23010 02 40 18.98 +33 09 12.7 20.1 r I41 – Palomar Mountain--ZTF MPS 496965
2013 11 28.31780 02 40 13.78 +33 08 40.0 20.1 r I41 – Palomar Mountain--ZTF MPS 496965
2013 11 28.35977 02 40 11.33 +33 08 23.8 20.2 r I41 – Palomar Mountain--ZTF MPS 496965
2015 01 21.56028 11 46 18.480 +02 50 24.34 22.2 w F51 – Pan-STARRS 1, Haleakala MPS 562601
2015 01 21.57184 11 46 18.343 +02 50 22.83 21.8 w F51 – Pan-STARRS 1, Haleakala MPS 562601
2015 01 21.58340 11 46 18.231 +02 50 21.68 22.1 w F51 – Pan-STARRS 1, Haleakala MPS 562601
2015 02 16.45240 11 32 56.719 +02 52 03.38 21.4 w F51 – Pan-STARRS 1, Haleakala MPS 580274
2015 02 16.46532 11 32 56.027 +02 52 04.75 21.5 w F51 – Pan-STARRS 1, Haleakala MPS 580274
2015 03 10.30890 11 10 33.86 +03 49 29.0 20.8 V G96 – Mt. Lemmon Survey MPS 585677
2015 03 10.31723 11 10 33.31 +03 49 30.5 20.6 V G96 – Mt. Lemmon Survey MPS 585677
2015 03 10.32559 11 10 32.71 +03 49 32.0 21.1 V G96 – Mt. Lemmon Survey MPS 585677
2015 03 10.33392 11 10 32.11 +03 49 33.7 20.9 V G96 – Mt. Lemmon Survey MPS 585677
2016 07 05.52930 22 48 12.791 -17 18 01.36 20.1 w F51 – Pan-STARRS 1, Haleakala MPS 719328
2016 07 05.53960 22 48 12.978 -17 17 58.66 20.1 w F51 – Pan-STARRS 1, Haleakala MPS 719328
2016 07 05.54989 22 48 13.162 -17 17 56.02 20.1 w F51 – Pan-STARRS 1, Haleakala MPS 719328
2016 07 05.56018 22 48 13.353 -17 17 53.32 20.0 w F51 – Pan-STARRS 1, Haleakala MPS 719328
2016 07 28.76509 22 46 10.32 -15 58 29.9 20.0 R D29 – Purple Mountain Observatory, XuYi Station MPS 721961
2016 07 28.78012 22 46 09.78 -15 58 27.0 19.5 R D29 – Purple Mountain Observatory, XuYi Station MPS 721961
2016 08 03.53047 22 42 26.791 -15 44 16.08 19.8 w F51 – Pan-STARRS 1, Haleakala MPS 723345
2016 08 03.54154 22 42 26.249 -15 44 14.43 19.7 w F51 – Pan-STARRS 1, Haleakala MPS 723345
2016 08 07.49747 22 39 13.165 -15 34 55.43 20.3 w F51 – Pan-STARRS 1, Haleakala MPS 724993
2016 08 07.50851 22 39 12.543 -15 34 53.93 20.2 w F51 – Pan-STARRS 1, Haleakala MPS 724993
2016 08 07.51948 22 39 11.921 -15 34 52.33 20.2 w F51 – Pan-STARRS 1, Haleakala MPS 724993
2016 08 12.44065 22 34 33.461 -15 23 09.32 19.0 r F51 – Pan-STARRS 1, Haleakala MPS 724993
2016 08 12.45201 22 34 32.730 -15 23 07.76 19.0 r F51 – Pan-STARRS 1, Haleakala MPS 724993
2016 08 12.46333 22 34 32.002 -15 23 06.22 18.9 r F51 – Pan-STARRS 1, Haleakala MPS 724993
2016 08 12.47466 22 34 31.278 -15 23 04.50 19.0 r F51 – Pan-STARRS 1, Haleakala MPS 724993
2016 08 26.02275 22 19 29.94 -14 45 01.3 19.0 R Y00 – SONEAR Observatory, Oliveira MPS 725521
2016 08 26.03406 22 19 29.07 -14 44 58.7 18.9 R Y00 – SONEAR Observatory, Oliveira MPS 725521
2016 08 26.04445 22 19 28.35 -14 44 57.1 18.9 R Y00 – SONEAR Observatory, Oliveira MPS 725521
2016 08 31.22581 22 13 32.58 -14 26 44.3 19.2 V 703 – Catalina Sky Survey MPS 727585
2016 08 31.23035 22 13 32.29 -14 26 44.6 18.7 V 703 – Catalina Sky Survey MPS 727585
2016 08 31.23488 22 13 31.95 -14 26 42.6 18.7 V 703 – Catalina Sky Survey MPS 727585
2016 08 31.23939 22 13 31.70 -14 26 42.0 18.9 V 703 – Catalina Sky Survey MPS 727585
2016 08 31.30341 22 13 27.07 -14 26 27.5 18.9 V G96 – Mt. Lemmon Survey MPS 727585
2016 08 31.30919 22 13 26.67 -14 26 26.2 18.8 V G96 – Mt. Lemmon Survey MPS 727585
2016 08 31.31497 22 13 26.26 -14 26 24.7 18.8 V G96 – Mt. Lemmon Survey MPS 727586
2016 08 31.32076 22 13 25.83 -14 26 23.6 18.9 V G96 – Mt. Lemmon Survey MPS 727586
2016 09 05.31720 22 08 01.19 -14 06 02.9 19.8 V 703 – Catalina Sky Survey MPS 753735
2016 09 05.32225 22 08 00.91 -14 06 01.3 19.2 V 703 – Catalina Sky Survey MPS 753735
2016 09 05.32731 22 08 00.54 -14 06 01.0 18.9 V 703 – Catalina Sky Survey MPS 753735
2016 09 05.33235 22 08 00.31 -14 05 59.6 18.7 V 703 – Catalina Sky Survey MPS 753735
2016 10 02.12858 21 51 30.42 -11 33 37.0 19.7 V G96 – Mt. Lemmon Survey MPS 734214
